Location: Unspecified
(0.0000°N, 0.0000°E)
Time: 05:29:36
(UTC+00:00)

CANX-2 - Pass Details

Date: 24 May 2026
Orbit: 542 x 558 km, 97.9° (Epoch: 11 June)

Event Time Altitude Azimuth Distance (km) Brightness Sun altitude
Rises 04:35:00 0° 351° (N) 2,686 ? -19.1°
Reaches altitude 10° 04:37:22 10° 338° (NNW) 1,799 ? -18.5°
Enters shadow 04:39:43 23° 304° (WNW) 1,178 ? -18.0°
